Content
SEND FEEDBACK

Daily
Averages
Monthly
Summary
United States of America

LEAVENWORTH, INDIANA


Home > North America > United States > Indiana
Elevation: 160 meters     Latitude: 38 12N     Longitude: 086 20W

WEATHER
 
SELECT A DAY
Number of Records: 194,476;   Date Range: 1/1/95 - 7/7/14
 
SHARE

PRINT THIS DATA

[ ← Previous Day ]
WEATHER ALMANAC - 13 FEBRUARY, 2013
[ Next Day → ]
[ °F ]   °C
Weather ElementAverageHighLow
Temperature1.9 °C4.6 °C (2:55 am)-0.4 °C (10:55 pm)
Dewpoint-1.1 °C1.5 °C (3:55 pm)-2.3 °C (3:55 am)
Humidity81.5 %100 % (12:22 pm)63 % (2:55 am)
Barometer1010.8 hPa1014.6 hPa (11:55 pm)1008.1 hPa (5:55 am)
Wind Speed11.3 km/h20.4 km/h (10:30 am)
Wind Gust27.8 km/h (10:30 am)
Weather ElementAverage
Visibility10.9 km
Wind DirectionSW (221.5 °)

Weather ElementTotal
Precipitation0.76 mm
Heating Degree Days16.2 (Base 18.3)
Averaged from 33 records on 13 February, 2013
WEATHER CONDITIONS BREAKOUT
WIND DIRECTION BREAKOUT
WEATHER BY HOUR - 13 FEBRUARY, 2013
[ °F ]   °C
Local TimeTemperatureDewpointHumidityBarometerVisibilityWind DirectionWind SpeedGust SpeedPrecipitationEventsConditions
1:55 AM4.2 °C-2 °C64 %1011.2 hPa16.1 kmNorth (10°)13 km/hOvercast
2:55 AM4.6 °C-2 °C63 %1010.5 hPa16.1 kmNNE (20°)18.5 km/hOvercast
3:55 AM4.3 °C-2.3 °C63 %1009.5 hPa16.1 kmNorth (360°)11.1 km/hOvercast
4:55 AM3.9 °C-2.2 °C65 %1009.1 hPa16.1 kmNE (40°)9.3 km/hMostly Cloudy
5:55 AM3.7 °C-2.3 °C65 %1008.1 hPa16.1 kmNNE (30°)9.3 km/hScattered Clouds
6:55 AM2.8 °C-1.9 °C71 %1009.1 hPa16.1 kmNorth (10°)16.7 km/hOvercast
7:03 AM3 °C-2 °C70 %1008.1 hPa16.1 kmNorth (360°)14.8 km/hSnowLight Snow
7:36 AM2 °C-2 °C75 %1008.8 hPa4.8 kmNorth (360°)13 km/hSnowLight Snow
7:55 AM2.1 °C-1.5 °C77 %1009.8 hPa6.4 kmNNW (340°)9.3 km/h0 mmSnowLight Snow
8:09 AM2 °C-2 °C75 %1009.1 hPa6.4 kmNorth (10°)7.4 km/hLight Ice Pellets
8:55 AM2.2 °C-1.4 °C77 %1010.2 hPa6.4 kmNNE (20°)13 km/h0 mmSnowLight Snow
9:55 AM1.1 °C-1.9 °C81 %1010.8 hPa12.9 kmNNW (340°)13 km/h0 mmSnowLight Snow
10:04 AM1 °C-2 °C81 %1009.8 hPa4.8 kmNNW (340°)11.1 km/hSnowLight Snow
10:30 AM0 °C-1 °C93 %1010.2 hPa1.6 kmNNW (340°)20.4 km/h27.8 km/hSnowLight Snow
10:55 AM0.1 °C-1.3 °C90 %1011.2 hPa3.2 kmNNW (340°)9.3 km/h0 mmSnowLight Snow
11:02 AM0 °C-1 °C93 %1010.2 hPa1.6 kmNW (320°)9.3 km/hSnowLight Snow
11:55 AM0.2 °C-0.6 °C94 %1011.5 hPa1.6 kmNW (320°)9.3 km/h0.51 mmSnowLight Snow
12:22 PM0 °C0 °C100 %1010.5 hPa2.4 kmNNW (330°)13 km/hSnowLight Snow
12:32 PM0 °C0 °C100 %1010.5 hPa3.2 kmNNW (330°)13 km/hSnowLight Snow
12:55 PM1.2 °C0.3 °C94 %1011.5 hPa3.2 kmVariable9.3 km/h0.25 mmSnowLight Snow
1:38 PM2 °C0 °C87 %1010.2 hPa6.4 kmWNW (300°)11.1 km/hSnowLight Snow
1:55 PM2.1 °C0.8 °C91 %1010.8 hPa6.4 kmWest (280°)7.4 km/h0 mmSnowLight Snow
2:09 PM2 °C0 °C87 %1009.8 hPa16.1 kmWest (260°)3.7 km/hOvercast
2:55 PM3.7 °C1.3 °C84 %1010.5 hPa16.1 kmWSW (240°)9.3 km/h0 mmMostly Cloudy
3:55 PM4.3 °C1.5 °C82 %1010.8 hPa16.1 kmWest (270°)11.1 km/hMostly Cloudy
4:55 PM4.5 °C0.2 °C74 %1011.5 hPa16.1 kmWest (260°)9.3 km/hMostly Cloudy
5:55 PM3.8 °C0 °C76 %1012.2 hPa16.1 kmWSW (240°)14.8 km/hMostly Cloudy
6:55 PM2.1 °C-0.9 °C81 %1012.9 hPa16.1 kmWSW (240°)11.1 km/hScattered Clouds
7:55 PM1 °C-1.6 °C83 %1013.5 hPa16.1 kmSSW (210°)11.1 km/hScattered Clouds
8:55 PM0.9 °C-1.6 °C84 %1013.9 hPa16.1 kmSSW (200°)7.4 km/hClear
9:55 PM0.3 °C-1.8 °C86 %1014.2 hPa16.1 kmSouth (190°)5.6 km/hClear
10:55 PM-0.4 °C-1.8 °C90 %1014.2 hPa16.1 kmSSW (200°)9.3 km/hClear
11:55 PM0.1 °C-1.1 °C92 %1014.6 hPa16.1 kmSSW (200°)14.8 km/hClear
Hourly data recorded from KFTK, located 0 kilometers away from Leavenworth, Indiana







STORIES FROM OUR PARTNERS